,,,PA_Meas_PMT16A,,PR_Meas_QMR101_102,,RH_Meas_QMH101,,SR_Meas_QMS101,,TA_Meas_QMH101,,GenWind,,GenWind,
date,time,status,PA,status,PR,status,RH,status,SR,status,TA,status,DirAvg,status,SpdAvg,
2010-07-12, 00:00:05,VALID,1006.08,VALID,0,VALID,104,VALID,0,VALID,24.1689,VALID,344,VALID,0,
2010-07-12, 00:01:05,VALID,1006.06,VALID,0,VALID,104,VALID,0,VALID,24.2486,VALID,350,VALID,0,
2010-07-12, 00:02:05,VALID,1006.06,VALID,0,VALID,104,VALID,0,VALID,24.2875,VALID,47,VALID,0,
2010-07-12, 00:03:05,VALID,1006.05,VALID,0,VALID,104,VALID,0,VALID,24.3052,VALID,47,VALID,0,
2010-07-12, 00:04:05,VALID,1006.07,VALID,0,VALID,104,VALID,0,VALID,24.3441,VALID,38,VALID,0,
2010-07-12, 00:05:05,VALID,1006.06,VALID,0,VALID,104,VALID,0,VALID,24.3636,VALID,53,VALID,0.290234,
2010-07-12, 00:06:05,VALID,1006.07,VALID,0,VALID,104,VALID,0.100563,VALID,24.383,VALID,8,VALID,0.859375,
2010-07-12, 00:07:05,VALID,1006.03,VALID,0,VALID,104,VALID,0,VALID,24.5406,VALID,10,VALID,1.45273,
2010-07-12, 00:08:05,VALID,1006,VALID,0,VALID,104,VALID,0,VALID,24.8308,VALID,7,VALID,0.934375,
2010-07-12, 00:09:05,VALID,1005.96,VALID,0,VALID,103.951,VALID,0,VALID,25.1267,VALID,37,VALID,0.911719,
2010-07-12, 00:10:05,VALID,1005.97,VALID,0,VALID,102.593,VALID,0,VALID,25.2202,VALID,2,VALID,0.844141,
2010-07-12, 00:11:05,VALID,1005.99,VALID,0,VALID,90.9515,VALID,0.100563,VALID,25.3565,VALID,26,VALID,1.05508,
2010-07-12, 00:12:05,VALID,1006.02,VALID,0,VALID,88.6628,VALID,0.100563,VALID,25.5337,VALID,31,VALID,0.699609,
2010-07-12, 00:13:05,VALID,1006.07,VALID,0,VALID,87.9457,VALID,0.100563,VALID,25.5318,VALID,45,VALID,0.492188,
2010-07-12, 00:14:05,VALID,1006.06,VALID,0,VALID,87.7474,VALID,0,VALID,25.4928,VALID,53,VALID,0.385156,
2010-07-12, 00:15:05,VALID,1006.06,VALID,0,VALID,87.816,VALID,0.100563,VALID,25.4753,VALID,40,VALID,0.902734,
2010-07-12, 00:16:05,VALID,1006.04,VALID,0,VALID,87.5567,VALID,0,VALID,25.5318,VALID,19,VALID,0.997266,
2010-07-12, 00:17:05,VALID,1006.01,VALID,0,VALID,86.8777,VALID,0,VALID,25.67,VALID,30,VALID,0.306641,
2010-07-12, 00:18:05,VALID,1005.99,VALID,0,VALID,86.6259,VALID,0,VALID,25.67,VALID,32,VALID,0,
2010-07-12, 00:19:05,VALID,1006,VALID,0,VALID,86.6565,VALID,0,VALID,25.6292,VALID,32,VALID,0,
2010-07-12, 00:20:05,VALID,1006.01,VALID,0,VALID,86.7938,VALID,0,VALID,25.6116,VALID,32,VALID,0,
2010-07-12, 00:21:05,VALID,1006.03,VALID,0,VALID,87.0074,VALID,0,VALID,25.5727,VALID,38,VALID,0.380859,
2010-07-12, 00:22:05,VALID,1006.02,VALID,0,VALID,87.1447,VALID,0,VALID,25.4948,VALID,76,VALID,0.598437,
2010-07-12, 00:23:05,VALID,1006.01,VALID,0,VALID,87.5033,VALID,0,VALID,25.4169,VALID,76,VALID,0.271484,
2010-07-12, 00:24:05,VALID,1005.99,VALID,0,VALID,87.8084,VALID,0,VALID,25.3584,VALID,76,VALID,0.489844,
2010-07-12, 00:25:05,VALID,1005.98,VALID,0,VALID,88.1899,VALID,0,VALID,25.2611,VALID,76,VALID,0.339844,
2010-07-12, 00:26:05,VALID,1005.96,VALID,0,VALID,88.6018,VALID,0,VALID,25.1813,VALID,70,VALID,0.00585938,
2010-07-12, 00:27:05,VALID,1005.93,VALID,0,VALID,89.1511,VALID,0,VALID,25.1423,VALID,56,VALID,0.586328,
2010-07-12, 00:28:05,VALID,1005.91,VALID,0,VALID,89.8758,VALID,0,VALID,25.1248,VALID,45,VALID,0.651953,
2010-07-12, 00:29:05,VALID,1005.86,VALID,0,VALID,91.3635,VALID,0,VALID,25.0469,VALID,44,VALID,0.461719,
2010-07-12, 00:30:05,VALID,1005.82,VALID,0,VALID,96.8868,VALID,0,VALID,24.9885,VALID,14,VALID,0.563672,
2010-07-12, 00:31:05,VALID,1005.81,VALID,0,VALID,100.778,VALID,0,VALID,24.9476,VALID,9,VALID,0.653906,
2010-07-12, 00:32:05,VALID,1005.81,VALID,0,VALID,102.288,VALID,0,VALID,24.93,VALID,8,VALID,0.669531,
2010-07-12, 00:33:05,VALID,1005.85,VALID,0,VALID,103.02,VALID,0,VALID,24.8892,VALID,8,VALID,0.443359,
2010-07-12, 00:34:05,VALID,1005.88,VALID,0,VALID,103.326,VALID,0,VALID,24.8911,VALID,18,VALID,0.549219,
2010-07-12, 00:35:05,VALID,1005.9,VALID,0,VALID,103.486,VALID,0,VALID,24.8522,VALID,22,VALID,0.423438,
2010-07-12, 00:36:05,VALID,1005.93,VALID,0,VALID,103.623,VALID,0,VALID,24.8308,VALID,78,VALID,0.830469,
2010-07-12, 00:37:05,VALID,1005.93,VALID,0,VALID,103.73,VALID,0,VALID,24.8716,VALID,65,VALID,0.596094,
2010-07-12, 00:38:05,VALID,1005.93,VALID,0,VALID,103.692,VALID,0,VALID,24.8911,VALID,72,VALID,0.563281,
2010-07-12, 00:39:05,VALID,1005.91,VALID,0,VALID,103.585,VALID,0,VALID,24.8308,VALID,73,VALID,0.440625,
2010-07-12, 00:40:05,VALID,1005.86,VALID,0,VALID,103.57,VALID,0,VALID,24.8113,VALID,59,VALID,0.557813,
2010-07-12, 00:41:05,VALID,1005.84,VALID,0,VALID,103.615,VALID,0,VALID,24.8113,VALID,47,VALID,0.632422,
2010-07-12, 00:42:05,VALID,1005.85,VALID,0,VALID,103.654,VALID,0.100563,VALID,24.751,VALID,46,VALID,0.435156,
2010-07-12, 00:43:05,VALID,1005.85,VALID,0,VALID,103.745,VALID,0,VALID,24.7529,VALID,46,VALID,0.255469,
2010-07-12, 00:44:05,VALID,1005.86,VALID,0,VALID,103.86,VALID,0.100563,VALID,24.7743,VALID,48,VALID,0.494141,
2010-07-12, 00:45:05,VALID,1005.85,VALID,0,VALID,103.921,VALID,0,VALID,24.7529,VALID,43,VALID,0.401172,
2010-07-12, 00:46:05,VALID,1005.8,VALID,0,VALID,103.989,VALID,0,VALID,24.7724,VALID,38,VALID,0.464844,
2010-07-12, 00:47:05,VALID,1005.77,VALID,0,VALID,104,VALID,0,VALID,24.7919,VALID,18,VALID,0.632813,
2010-07-12, 00:48:05,VALID,1005.69,VALID,0,VALID,104,VALID,0,VALID,24.8522,VALID,360,VALID,0.948438,
2010-07-12, 00:49:05,VALID,1005.65,VALID,0,VALID,103.951,VALID,0,VALID,24.9282,VALID,11,VALID,0.9125,
2010-07-12, 00:50:05,VALID,1005.62,VALID,0,VALID,103.707,VALID,0,VALID,24.9866,VALID,360,VALID,0.958984,
2010-07-12, 00:51:05,VALID,1005.58,VALID,0,VALID,103.402,VALID,0,VALID,25.0839,VALID,21,VALID,1.11875,
2010-07-12, 00:52:05,VALID,1005.56,VALID,0,VALID,102.967,VALID,0,VALID,25.1229,VALID,30,VALID,0.488672,
2010-07-12, 00:53:05,VALID,1005.59,VALID,0,VALID,102.044,VALID,0,VALID,25.1442,VALID,24,VALID,0.619141,
2010-07-12, 00:54:05,VALID,1005.58,VALID,0,VALID,101.495,VALID,0,VALID,25.1034,VALID,33,VALID,1.09687,
2010-07-12, 00:55:05,VALID,1005.6,VALID,0,VALID,102.09,VALID,0,VALID,25.1034,VALID,67,VALID,1.14922,
2010-07-12, 00:56:05,VALID,1005.63,VALID,0,VALID,101.899,VALID,0,VALID,25.1034,VALID,30,VALID,0.802344,
2010-07-12, 00:57:05,VALID,1005.65,VALID,0,VALID,102.082,VALID,0,VALID,25.1442,VALID,33,VALID,0.758203,
2010-07-12, 00:58:05,VALID,1005.65,VALID,0,VALID,101.167,VALID,0,VALID,25.1832,VALID,35,VALID,0.149609,
2010-07-12, 00:59:05,VALID,1005.65,VALID,0,VALID,100.274,VALID,0,VALID,25.1423,VALID,35,VALID,0.163281,
2010-07-12, 01:00:05,VALID,1005.68,VALID,0,VALID,100.724,VALID,0,VALID,25.1423,VALID,35,VALID,0.0140625,
2010-07-12, 01:01:05,VALID,1005.69,VALID,0,VALID,100.716,VALID,0,VALID,25.1229,VALID,35,VALID,0,
2010-07-12, 01:02:05,VALID,1005.72,VALID,0,VALID,100.961,VALID,0,VALID,25.1034,VALID,35,VALID,0,
2010-07-12, 01:03:05,VALID,1005.7,VALID,0,VALID,101.312,VALID,0,VALID,25.1229,VALID,35,VALID,0,
2010-07-12, 01:04:05,VALID,1005.72,VALID,0,VALID,99.5111,VALID,0,VALID,25.0644,VALID,215,VALID,1.08008,
2010-07-12, 01:05:05,VALID,1005.73,VALID,0,VALID,99.7552,VALID,0,VALID,25.0079,VALID,203,VALID,0.977344,
2010-07-12, 01:06:05,VALID,1005.73,VALID,0,VALID,100.991,VALID,0,VALID,24.9476,VALID,195,VALID,0.812891,
2010-07-12, 01:07:05,VALID,1005.77,VALID,0,VALID,101.838,VALID,0,VALID,24.8892,VALID,189,VALID,0.516797,
2010-07-12, 01:08:05,VALID,1005.8,VALID,0,VALID,102.418,VALID,0,VALID,24.8503,VALID,189,VALID,0.516406,
2010-07-12, 01:09:05,VALID,1005.81,VALID,0,VALID,102.799,VALID,0,VALID,24.8113,VALID,189,VALID,0.503906,
2010-07-12, 01:10:05,VALID,1005.81,VALID,0,VALID,102.99,VALID,0,VALID,24.7937,VALID,117,VALID,0,
2010-07-12, 01:11:05,VALID,1005.77,VALID,0,VALID,103.173,VALID,0,VALID,24.7743,VALID,57,VALID,0.462891,
2010-07-12, 01:12:05,VALID,1005.78,VALID,0,VALID,103.409,VALID,0,VALID,24.7335,VALID,342,VALID,0.803906,
2010-07-12, 01:13:05,VALID,1005.75,VALID,0,VALID,103.516,VALID,0,VALID,24.7335,VALID,1,VALID,0.676172,
2010-07-12, 01:14:05,VALID,1005.78,VALID,0,VALID,103.585,VALID,0,VALID,24.714,VALID,327,VALID,0.678125,
2010-07-12, 01:15:05,VALID,1005.75,VALID,0,VALID,103.623,VALID,0,VALID,24.7353,VALID,340,VALID,0.697266,
2010-07-12, 01:16:05,VALID,1005.75,VALID,0,VALID,103.623,VALID,0,VALID,24.6945,VALID,354,VALID,0.623828,
2010-07-12, 01:17:05,VALID,1005.72,VALID,0,VALID,103.669,VALID,0,VALID,24.6361,VALID,354,VALID,0.560156,
2010-07-12, 01:18:05,VALID,1005.68,VALID,0,VALID,103.776,VALID,0,VALID,24.5972,VALID,354,VALID,0.316016,
2010-07-12, 01:19:05,VALID,1005.64,VALID,0,VALID,103.867,VALID,0,VALID,24.599,VALID,354,VALID,0.363281,
2010-07-12, 01:20:05,VALID,1005.62,VALID,0,VALID,103.982,VALID,0,VALID,24.5796,VALID,354,VALID,0,
2010-07-12, 01:21:05,VALID,1005.6,VALID,0,VALID,104,VALID,0,VALID,24.5193,VALID,354,VALID,0,
2010-07-12, 01:22:05,VALID,1005.58,VALID,0,VALID,104,VALID,0,VALID,24.5212,VALID,354,VALID,0,
2010-07-12, 01:23:05,VALID,1005.54,VALID,0,VALID,104,VALID,0,VALID,24.4414,VALID,354,VALID,0,
2010-07-12, 01:24:05,VALID,1005.51,VALID,0,VALID,104,VALID,0,VALID,24.422,VALID,354,VALID,0,
2010-07-12, 01:25:05,VALID,1005.46,VALID,0,VALID,104,VALID,0,VALID,24.383,VALID,354,VALID,0,
2010-07-12, 01:26:05,VALID,1005.43,VALID,0,VALID,104,VALID,0,VALID,24.383,VALID,354,VALID,0,
2010-07-12, 01:27:05,VALID,1005.43,VALID,0,VALID,104,VALID,0.100563,VALID,24.3636,VALID,100,VALID,0,
2010-07-12, 01:28:05,VALID,1005.42,VALID,0,VALID,104,VALID,0,VALID,24.3265,VALID,100,VALID,0,
2010-07-12, 01:29:05,VALID,1005.42,VALID,0,VALID,104,VALID,0,VALID,24.2662,VALID,100,VALID,0,
2010-07-12, 01:30:05,VALID,1005.4,VALID,0,VALID,104,VALID,0,VALID,24.2468,VALID,100,VALID,0,
2010-07-12, 01:31:05,VALID,1005.38,VALID,0,VALID,104,VALID,0,VALID,24.2078,VALID,100,VALID,0,
2010-07-12, 01:32:05,VALID,1005.38,VALID,0,VALID,104,VALID,0,VALID,24.2097,VALID,100,VALID,0,
2010-07-12, 01:33:05,VALID,1005.36,VALID,0,VALID,104,VALID,0,VALID,24.1707,VALID,100,VALID,0,
2010-07-12, 01:34:05,VALID,1005.35,VALID,0,VALID,104,VALID,0,VALID,24.1513,VALID,100,VALID,0,
2010-07-12, 01:35:04,VALID,1005.32,VALID,0,VALID,104,VALID,0,VALID,24.13,VALID,100,VALID,0,
2010-07-12, 01:36:04,VALID,1005.32,VALID,0,VALID,104,VALID,0,VALID,24.1123,VALID,100,VALID,0,
2010-07-12, 01:37:04,VALID,1005.35,VALID,0,VALID,104,VALID,0,VALID,24.091,VALID,100,VALID,0,
2010-07-12, 01:38:04,VALID,1005.34,VALID,0,VALID,104,VALID,0,VALID,24.0716,VALID,100,VALID,0,
2010-07-12, 01:39:04,VALID,1005.37,VALID,0,VALID,104,VALID,0,VALID,24.0929,VALID,100,VALID,0,
2010-07-12, 01:40:04,VALID,1005.39,VALID,0,VALID,104,VALID,0,VALID,24.0308,VALID,100,VALID,0,
2010-07-12, 01:41:04,VALID,1005.39,VALID,0,VALID,104,VALID,0,VALID,24.0521,VALID,100,VALID,0,
2010-07-12, 01:42:04,VALID,1005.45,VALID,0,VALID,104,VALID,0,VALID,24.0326,VALID,100,VALID,0,
2010-07-12, 01:43:04,VALID,1005.43,VALID,0,VALID,104,VALID,0,VALID,24.0326,VALID,100,VALID,0,
2010-07-12, 01:44:04,VALID,1005.45,VALID,0,VALID,104,VALID,0,VALID,24.0132,VALID,100,VALID,0,
2010-07-12, 01:45:04,VALID,1005.45,VALID,0,VALID,104,VALID,0,VALID,23.9742,VALID,100,VALID,0,
2010-07-12, 01:46:04,VALID,1005.43,VALID,0,VALID,104,VALID,0,VALID,23.9761,VALID,100,VALID,0,
2010-07-12, 01:47:04,VALID,1005.42,VALID,0,VALID,104,VALID,0,VALID,23.9335,VALID,100,VALID,0,
2010-07-12, 01:48:04,VALID,1005.43,VALID,0,VALID,104,VALID,0,VALID,23.9353,VALID,100,VALID,0,
2010-07-12, 01:49:04,VALID,1005.4,VALID,0,VALID,104,VALID,0,VALID,23.9371,VALID,100,VALID,0,
2010-07-12, 01:50:04,VALID,1005.38,VALID,0,VALID,104,VALID,0,VALID,23.8769,VALID,66,VALID,0,
2010-07-12, 01:51:04,VALID,1005.35,VALID,0,VALID,104,VALID,0,VALID,23.8769,VALID,57,VALID,0,
2010-07-12, 01:52:04,VALID,1005.36,VALID,0,VALID,104,VALID,0,VALID,23.838,VALID,57,VALID,0,
2010-07-12, 01:53:04,VALID,1005.33,VALID,0,VALID,104,VALID,0,VALID,23.838,VALID,57,VALID,0,
2010-07-12, 01:54:04,VALID,1005.3,VALID,0,VALID,104,VALID,0,VALID,23.7991,VALID,57,VALID,0,
2010-07-12, 01:55:04,VALID,1005.28,VALID,0,VALID,104,VALID,0,VALID,23.7991,VALID,57,VALID,0,
2010-07-12, 01:56:04,VALID,1005.23,VALID,0,VALID,104,VALID,0,VALID,23.7778,VALID,57,VALID,0,
2010-07-12, 01:57:04,VALID,1005.23,VALID,0,VALID,104,VALID,0.100563,VALID,23.7991,VALID,57,VALID,0,
2010-07-12, 01:58:04,VALID,1005.2,VALID,0,VALID,104,VALID,0,VALID,23.7796,VALID,57,VALID,0,
2010-07-12, 01:59:04,VALID,1005.2,VALID,0,VALID,104,VALID,0,VALID,23.7796,VALID,57,VALID,0,
2010-07-12, 02:00:04,VALID,1005.19,VALID,0,VALID,104,VALID,0,VALID,23.7601,VALID,21,VALID,0,
2010-07-12, 02:01:04,VALID,1005.23,VALID,0,VALID,104,VALID,0,VALID,23.7601,VALID,13,VALID,0,
2010-07-12, 02:02:04,VALID,1005.23,VALID,0,VALID,104,VALID,0,VALID,23.7407,VALID,6,VALID,0,
2010-07-12, 02:03:04,VALID,1005.26,VALID,0,VALID,104,VALID,0.100563,VALID,23.7407,VALID,6,VALID,0,
2010-07-12, 02:04:04,VALID,1005.26,VALID,0,VALID,104,VALID,0,VALID,23.7212,VALID,6,VALID,0,
2010-07-12, 02:05:04,VALID,1005.24,VALID,0,VALID,104,VALID,0,VALID,23.7017,VALID,6,VALID,0,
2010-07-12, 02:06:04,VALID,1005.26,VALID,0,VALID,104,VALID,0,VALID,23.7407,VALID,95,VALID,0,
2010-07-12, 02:07:04,VALID,1005.27,VALID,0,VALID,104,VALID,0.100563,VALID,23.7601,VALID,95,VALID,0,
2010-07-12, 02:08:04,VALID,1005.23,VALID,0,VALID,104,VALID,0,VALID,23.7601,VALID,95,VALID,0,
2010-07-12, 02:09:04,VALID,1005.22,VALID,0,VALID,104,VALID,0,VALID,23.7796,VALID,95,VALID,0,
2010-07-12, 02:10:04,VALID,1005.19,VALID,0,VALID,104,VALID,0,VALID,23.7778,VALID,95,VALID,0,
2010-07-12, 02:11:04,VALID,1005.13,VALID,0,VALID,104,VALID,0,VALID,23.7796,VALID,95,VALID,0,
2010-07-12, 02:12:04,VALID,1005.1,VALID,0,VALID,104,VALID,0,VALID,23.7991,VALID,95,VALID,0,
2010-07-12, 02:13:04,VALID,1005.09,VALID,0,VALID,104,VALID,0.100563,VALID,23.7796,VALID,95,VALID,0,
2010-07-12, 02:14:04,VALID,1005.06,VALID,0,VALID,104,VALID,0,VALID,23.7389,VALID,95,VALID,0,
2010-07-12, 02:15:04,VALID,1005.08,VALID,0,VALID,104,VALID,0,VALID,23.7212,VALID,95,VALID,0,
2010-07-12, 02:16:04,VALID,1005.09,VALID,0,VALID,104,VALID,0,VALID,23.6823,VALID,95,VALID,0,
2010-07-12, 02:17:04,VALID,1005.11,VALID,0,VALID,104,VALID,0,VALID,23.6416,VALID,95,VALID,0,
2010-07-12, 02:18:04,VALID,1005.14,VALID,0,VALID,104,VALID,0,VALID,23.6823,VALID,95,VALID,0,
2010-07-12, 02:19:04,VALID,1005.19,VALID,0,VALID,104,VALID,0,VALID,23.6628,VALID,95,VALID,0,
2010-07-12, 02:20:04,VALID,1005.19,VALID,0,VALID,104,VALID,0,VALID,23.6434,VALID,95,VALID,0,
2010-07-12, 02:21:04,VALID,1005.2,VALID,0,VALID,104,VALID,0,VALID,23.6239,VALID,95,VALID,0,
2010-07-12, 02:22:04,VALID,1005.24,VALID,0,VALID,104,VALID,0,VALID,23.6239,VALID,95,VALID,0,
2010-07-12, 02:23:04,VALID,1005.28,VALID,0,VALID,104,VALID,0,VALID,23.6239,VALID,92,VALID,0,
2010-07-12, 02:24:04,VALID,1005.28,VALID,0,VALID,104,VALID,0.100563,VALID,23.6239,VALID,12,VALID,0,
2010-07-12, 02:25:04,VALID,1005.26,VALID,0,VALID,104,VALID,0,VALID,23.6044,VALID,12,VALID,0,
2010-07-12, 02:26:04,VALID,1005.23,VALID,0,VALID,104,VALID,0,VALID,23.6044,VALID,12,VALID,0,
2010-07-12, 02:27:04,VALID,1005.23,VALID,0,VALID,104,VALID,0.100563,VALID,23.6239,VALID,12,VALID,0,
2010-07-12, 02:28:04,VALID,1005.18,VALID,0,VALID,104,VALID,0,VALID,23.6239,VALID,12,VALID,0,
2010-07-12, 02:29:04,VALID,1005.19,VALID,0,VALID,104,VALID,0,VALID,23.5832,VALID,12,VALID,0,
2010-07-12, 02:30:04,VALID,1005.15,VALID,0,VALID,104,VALID,0.100563,VALID,23.585,VALID,12,VALID,0,
2010-07-12, 02:31:04,VALID,1005.15,VALID,0,VALID,104,VALID,0.100563,VALID,23.546,VALID,12,VALID,0,
2010-07-12, 02:32:04,VALID,1005.17,VALID,0,VALID,104,VALID,0,VALID,23.4682,VALID,12,VALID,0,
2010-07-12, 02:33:04,VALID,1005.14,VALID,0,VALID,104,VALID,0,VALID,23.4098,VALID,12,VALID,0,
2010-07-12, 02:34:04,VALID,1005.15,VALID,0,VALID,104,VALID,0,VALID,23.3514,VALID,12,VALID,0,
2010-07-12, 02:35:04,VALID,1005.12,VALID,0,VALID,104,VALID,0,VALID,23.3337,VALID,12,VALID,0,
2010-07-12, 02:36:04,VALID,1005.1,VALID,0,VALID,104,VALID,0.100563,VALID,23.2134,VALID,89,VALID,0,
2010-07-12, 02:37:04,VALID,1005.11,VALID,0,VALID,104,VALID,0.100563,VALID,23.194,VALID,91,VALID,0,
2010-07-12, 02:38:04,VALID,1005.12,VALID,0,VALID,104,VALID,0,VALID,23.2541,VALID,91,VALID,0,
2010-07-12, 02:39:04,VALID,1005.1,VALID,0,VALID,104,VALID,0,VALID,23.2347,VALID,91,VALID,0,
2010-07-12, 02:40:04,VALID,1005.12,VALID,0,VALID,104,VALID,0.100563,VALID,23.2347,VALID,91,VALID,0,
2010-07-12, 02:41:04,VALID,1005.12,VALID,0,VALID,104,VALID,0,VALID,23.2541,VALID,135,VALID,0.304297,
2010-07-12, 02:42:04,VALID,1005.11,VALID,0,VALID,104,VALID,0,VALID,23.2329,VALID,177,VALID,0.532812,
2010-07-12, 02:43:04,VALID,1005.06,VALID,0,VALID,104,VALID,0,VALID,23.2948,VALID,190,VALID,1.08906,
2010-07-12, 02:44:04,VALID,1005.06,VALID,0,VALID,104,VALID,0,VALID,23.2524,VALID,213,VALID,0.500781,
2010-07-12, 02:45:04,VALID,1005.01,VALID,0,VALID,104,VALID,0,VALID,23.2718,VALID,218,VALID,0.497266,
2010-07-12, 02:46:04,VALID,1004.99,VALID,0,VALID,104,VALID,0,VALID,23.2931,VALID,221,VALID,0.0898438,
2010-07-12, 02:47:04,VALID,1004.92,VALID,0,VALID,104,VALID,0.100563,VALID,23.2931,VALID,221,VALID,0.246094,
2010-07-12, 02:48:04,VALID,1004.88,VALID,0,VALID,104,VALID,0,VALID,23.2718,VALID,221,VALID,0,
2010-07-12, 02:49:04,VALID,1004.84,VALID,0,VALID,104,VALID,0,VALID,23.3337,VALID,222,VALID,0,
2010-07-12, 02:50:04,VALID,1004.81,VALID,0,VALID,104,VALID,0,VALID,23.2931,VALID,222,VALID,0,
2010-07-12, 02:51:04,VALID,1004.78,VALID,0,VALID,104,VALID,0.100563,VALID,23.2524,VALID,238,VALID,0,
2010-07-12, 02:52:04,VALID,1004.77,VALID,0,VALID,104,VALID,0,VALID,23.2736,VALID,250,VALID,0,
2010-07-12, 02:53:04,VALID,1004.73,VALID,0,VALID,104,VALID,0,VALID,23.2347,VALID,339,VALID,0,
2010-07-12, 02:54:04,VALID,1004.72,VALID,0,VALID,104,VALID,0,VALID,23.1975,VALID,339,VALID,0,
2010-07-12, 02:55:04,VALID,1004.7,VALID,0,VALID,104,VALID,0,VALID,23.1568,VALID,339,VALID,0,
2010-07-12, 02:56:04,VALID,1004.73,VALID,0,VALID,104,VALID,0,VALID,23.0967,VALID,339,VALID,0,
2010-07-12, 02:57:04,VALID,1004.7,VALID,0,VALID,104,VALID,0,VALID,23.0984,VALID,339,VALID,0,
2010-07-12, 02:58:04,VALID,1004.7,VALID,0,VALID,104,VALID,0,VALID,23.079,VALID,339,VALID,0,
2010-07-12, 02:59:04,VALID,1004.68,VALID,0,VALID,104,VALID,0,VALID,23.0595,VALID,339,VALID,0.672266,
2010-07-12, 03:00:04,VALID,1004.69,VALID,0,VALID,104,VALID,0,VALID,23.0206,VALID,340,VALID,0.627344,
2010-07-12, 03:01:04,VALID,1004.7,VALID,0,VALID,104,VALID,0,VALID,22.9817,VALID,356,VALID,0.615625,
2010-07-12, 03:02:04,VALID,1004.72,VALID,0,VALID,104,VALID,0,VALID,22.9834,VALID,356,VALID,0.417969,
2010-07-12, 03:03:04,VALID,1004.71,VALID,0,VALID,104,VALID,0,VALID,22.9428,VALID,356,VALID,0.148828,
2010-07-12, 03:04:04,VALID,1004.72,VALID,0,VALID,104,VALID,0,VALID,22.9428,VALID,356,VALID,0,
2010-07-12, 03:05:04,VALID,1004.72,VALID,0,VALID,104,VALID,0,VALID,22.964,VALID,356,VALID,0,
2010-07-12, 03:06:04,VALID,1004.75,VALID,0,VALID,104,VALID,0,VALID,22.9233,VALID,356,VALID,0,
2010-07-12, 03:07:04,VALID,1004.74,VALID,0,VALID,104,VALID,0,VALID,22.9251,VALID,356,VALID,0,
2010-07-12, 03:08:04,VALID,1004.79,VALID,0,VALID,104,VALID,0,VALID,22.8844,VALID,356,VALID,0.10625,
2010-07-12, 03:09:04,VALID,1004.79,VALID,0,VALID,104,VALID,0,VALID,22.8844,VALID,356,VALID,0,
2010-07-12, 03:10:04,VALID,1004.82,VALID,0,VALID,104,VALID,0,VALID,22.9039,VALID,356,VALID,0,
2010-07-12, 03:11:04,VALID,1004.84,VALID,0,VALID,104,VALID,0,VALID,22.9251,VALID,356,VALID,0,
2010-07-12, 03:12:04,VALID,1004.84,VALID,0,VALID,104,VALID,0,VALID,22.9056,VALID,356,VALID,0,
2010-07-12, 03:13:04,VALID,1004.84,VALID,0,VALID,104,VALID,0,VALID,22.8861,VALID,356,VALID,0,
2010-07-12, 03:14:04,VALID,1004.85,VALID,0,VALID,104,VALID,0,VALID,22.8066,VALID,356,VALID,0,
2010-07-12, 03:15:04,VALID,1004.84,VALID,0,VALID,104,VALID,0,VALID,22.8066,VALID,356,VALID,0,
2010-07-12, 03:16:04,VALID,1004.86,VALID,0,VALID,104,VALID,0,VALID,22.7677,VALID,356,VALID,0,
2010-07-12, 03:17:04,VALID,1004.87,VALID,0,VALID,104,VALID,0,VALID,22.7694,VALID,356,VALID,0,
2010-07-12, 03:18:04,VALID,1004.87,VALID,0,VALID,104,VALID,0,VALID,22.7499,VALID,356,VALID,0,
2010-07-12, 03:19:04,VALID,1004.87,VALID,0,VALID,104,VALID,0,VALID,22.7305,VALID,356,VALID,0,
2010-07-12, 03:20:04,VALID,1004.87,VALID,0,VALID,104,VALID,0,VALID,22.7093,VALID,356,VALID,0,
2010-07-12, 03:21:04,VALID,1004.84,VALID,0,VALID,104,VALID,0,VALID,22.7093,VALID,356,VALID,0,
2010-07-12, 03:22:04,VALID,1004.85,VALID,0,VALID,104,VALID,0,VALID,22.6881,VALID,356,VALID,0,
2010-07-12, 03:23:04,VALID,1004.84,VALID,0,VALID,104,VALID,0,VALID,22.7093,VALID,356,VALID,0,
2010-07-12, 03:24:04,VALID,1004.83,VALID,0,VALID,104,VALID,0,VALID,22.7287,VALID,356,VALID,0,
2010-07-12, 03:25:04,VALID,1004.86,VALID,0,VALID,104,VALID,0,VALID,22.7499,VALID,356,VALID,0,
2010-07-12, 03:26:04,VALID,1004.82,VALID,0,VALID,104,VALID,0,VALID,22.7694,VALID,356,VALID,0,
2010-07-12, 03:27:04,VALID,1004.81,VALID,0,VALID,104,VALID,0,VALID,22.7499,VALID,356,VALID,0,
2010-07-12, 03:28:04,VALID,1004.78,VALID,0,VALID,104,VALID,0,VALID,22.7499,VALID,356,VALID,0,
2010-07-12, 03:29:04,VALID,1004.76,VALID,0,VALID,104,VALID,0,VALID,22.7287,VALID,356,VALID,0,
2010-07-12, 03:30:04,VALID,1004.77,VALID,0,VALID,104,VALID,0,VALID,22.7287,VALID,356,VALID,0,
2010-07-12, 03:31:04,VALID,1004.77,VALID,0,VALID,104,VALID,0,VALID,22.7287,VALID,356,VALID,0,
2010-07-12, 03:32:04,VALID,1004.79,VALID,0,VALID,104,VALID,0,VALID,22.7499,VALID,356,VALID,0,
2010-07-12, 03:33:04,VALID,1004.81,VALID,0,VALID,104,VALID,0,VALID,22.7482,VALID,349,VALID,0.882422,
2010-07-12, 03:34:04,VALID,1004.78,VALID,0,VALID,104,VALID,0,VALID,22.8083,VALID,346,VALID,0.747266,
2010-07-12, 03:35:04,VALID,1004.81,VALID,0,VALID,104,VALID,0,VALID,22.7871,VALID,346,VALID,0.6375,
2010-07-12, 03:36:04,VALID,1004.82,VALID,0,VALID,104,VALID,0,VALID,22.8278,VALID,346,VALID,0.317969,
2010-07-12, 03:37:04,VALID,1004.8,VALID,0,VALID,104,VALID,0,VALID,22.8083,VALID,346,VALID,0.184766,
2010-07-12, 03:38:04,VALID,1004.82,VALID,0,VALID,104,VALID,0,VALID,22.8066,VALID,346,VALID,0.316016,
2010-07-12, 03:39:04,VALID,1004.86,VALID,0,VALID,104,VALID,0,VALID,22.8066,VALID,346,VALID,0,
2010-07-12, 03:40:04,VALID,1004.93,VALID,0,VALID,104,VALID,0,VALID,22.826,VALID,346,VALID,0,
2010-07-12, 03:41:04,VALID,1004.99,VALID,0,VALID,104,VALID,0,VALID,22.8667,VALID,346,VALID,0,
2010-07-12, 03:42:04,VALID,1005.01,VALID,0,VALID,104,VALID,0,VALID,22.8455,VALID,346,VALID,0,
2010-07-12, 03:43:04,VALID,1005.05,VALID,0,VALID,104,VALID,0,VALID,22.8455,VALID,346,VALID,0,
2010-07-12, 03:44:04,VALID,1005.11,VALID,0,VALID,104,VALID,0,VALID,22.8667,VALID,346,VALID,0,
2010-07-12, 03:45:04,VALID,1005.13,VALID,0,VALID,104,VALID,0,VALID,22.8667,VALID,346,VALID,0,
2010-07-12, 03:46:04,VALID,1005.11,VALID,0,VALID,104,VALID,0,VALID,22.826,VALID,346,VALID,0,
2010-07-12, 03:47:04,VALID,1005.11,VALID,0,VALID,104,VALID,0,VALID,22.8667,VALID,346,VALID,0,
2010-07-12, 03:48:04,VALID,1005.07,VALID,0,VALID,104,VALID,0,VALID,22.826,VALID,352,VALID,0.542578,
2010-07-12, 03:49:04,VALID,1005.06,VALID,0,VALID,104,VALID,0,VALID,22.8066,VALID,353,VALID,0.271094,
2010-07-12, 03:50:04,VALID,1005.08,VALID,0,VALID,104,VALID,0,VALID,22.8278,VALID,353,VALID,0.626562,
2010-07-12, 03:51:04,VALID,1005.05,VALID,0,VALID,104,VALID,0,VALID,22.826,VALID,353,VALID,0.45625,
2010-07-12, 03:52:04,VALID,1005.06,VALID,0,VALID,104,VALID,0,VALID,22.826,VALID,360,VALID,0.513281,
2010-07-12, 03:53:04,VALID,1005.07,VALID,0,VALID,104,VALID,0,VALID,22.8066,VALID,360,VALID,0.450391,
2010-07-12, 03:54:04,VALID,1005.06,VALID,0,VALID,104,VALID,0,VALID,22.826,VALID,360,VALID,0.353125,
2010-07-12, 03:55:04,VALID,1005.08,VALID,0,VALID,104,VALID,0,VALID,22.8472,VALID,360,VALID,0,
2010-07-12, 03:56:04,VALID,1005.12,VALID,0,VALID,104,VALID,0,VALID,22.826,VALID,360,VALID,0.169922,
2010-07-12, 03:57:04,VALID,1005.12,VALID,0,VALID,104,VALID,0,VALID,22.8472,VALID,360,VALID,0,
2010-07-12, 03:58:04,VALID,1005.13,VALID,0,VALID,104,VALID,0,VALID,22.8083,VALID,360,VALID,0,
2010-07-12, 03:59:04,VALID,1005.11,VALID,0,VALID,104,VALID,0,VALID,22.7871,VALID,360,VALID,0,
2010-07-12, 04:00:04,VALID,1005.09,VALID,0,VALID,104,VALID,0,VALID,22.8083,VALID,360,VALID,0,